,,Stat5,,Stat1,,Stat2,,Stat3,,Stat4,,Wind1,,Wind1,
time,status,PA1M_AVG,status,PR1M_SUM,status,RH1M_AVG,status,SR1M_AVG,status,TA1M_AVG,status,W1dAve1m,status,W1sAve1m,
2001-06-26, 00:00:00,VALID,918.166,VALID,0,VALID,94.4764,VALID,0.0169808,VALID,19.6933,VALID,360,VALID,0,
2001-06-26, 00:01:00,VALID,918.175,VALID,0,VALID,94.3378,VALID,0,VALID,19.6935,VALID,4,VALID,0.0737847,
2001-06-26, 00:02:00,VALID,918.18,VALID,0,VALID,94.3162,VALID,0,VALID,19.6704,VALID,160,VALID,0.44401,
2001-06-26, 00:03:00,VALID,918.184,VALID,0,VALID,94.5832,VALID,0.0679233,VALID,19.6967,VALID,103,VALID,0.409628,
2001-06-26, 00:04:00,VALID,918.178,VALID,0,VALID,94.2564,VALID,0.0509425,VALID,19.6776,VALID,110,VALID,0.847862,
2001-06-26, 00:05:00,VALID,918.178,VALID,0,VALID,94.0822,VALID,-0.0169808,VALID,19.6262,VALID,98,VALID,0.906456,
2001-06-26, 00:06:00,VALID,918.197,VALID,0,VALID,94.1598,VALID,0.0169808,VALID,19.5842,VALID,97,VALID,0.660362,
2001-06-26, 00:07:00,VALID,918.198,VALID,0,VALID,94.362,VALID,0.0339617,VALID,19.5449,VALID,110,VALID,0.842928,
2001-06-26, 00:08:00,VALID,918.207,VALID,0,VALID,94.5591,VALID,0.0169808,VALID,19.532,VALID,115,VALID,1.02103,
2001-06-26, 00:09:00,VALID,918.203,VALID,0,VALID,94.6443,VALID,0,VALID,19.5425,VALID,118,VALID,1.17249,
2001-06-26, 00:10:00,VALID,918.188,VALID,0,VALID,94.5527,VALID,0,VALID,19.539,VALID,122,VALID,1.11418,
2001-06-26, 00:11:00,VALID,918.18,VALID,0,VALID,94.5031,VALID,0,VALID,19.5323,VALID,118,VALID,1.09642,
2001-06-26, 00:12:00,VALID,918.161,VALID,0,VALID,94.3836,VALID,0,VALID,19.5261,VALID,134,VALID,1.1268,
2001-06-26, 00:13:00,VALID,918.146,VALID,0,VALID,94.526,VALID,0,VALID,19.5325,VALID,136,VALID,0.85773,
2001-06-26, 00:14:00,VALID,918.129,VALID,0,VALID,94.5527,VALID,0,VALID,19.5328,VALID,141,VALID,0.758213,
2001-06-26, 00:15:00,VALID,918.104,VALID,0,VALID,94.7282,VALID,0,VALID,19.5099,VALID,130,VALID,0.45662,
2001-06-26, 00:16:00,VALID,918.065,VALID,0,VALID,94.7651,VALID,0.0169808,VALID,19.5097,VALID,111,VALID,0.619992,
2001-06-26, 00:17:00,VALID,918.042,VALID,0,VALID,94.9062,VALID,0,VALID,19.4938,VALID,101,VALID,0.54523,
2001-06-26, 00:18:00,VALID,918,VALID,0,VALID,95.261,VALID,0,VALID,19.4838,VALID,85,VALID,0.6877,
2001-06-26, 00:19:00,VALID,917.976,VALID,0,VALID,95.6107,VALID,0.0339617,VALID,19.4709,VALID,94,VALID,0.830181,
2001-06-26, 00:20:00,VALID,917.963,VALID,0,VALID,95.8586,VALID,0,VALID,19.4647,VALID,98,VALID,0.559495,
2001-06-26, 00:21:00,VALID,917.953,VALID,0,VALID,96.0163,VALID,0,VALID,19.4356,VALID,85,VALID,0.728002,
2001-06-26, 00:22:00,VALID,917.937,VALID,0,VALID,96.2299,VALID,0.0169808,VALID,19.4287,VALID,80,VALID,0.536659,
2001-06-26, 00:23:00,VALID,917.897,VALID,0,VALID,96.305,VALID,0,VALID,19.4317,VALID,90,VALID,0.491365,
2001-06-26, 00:24:00,VALID,917.867,VALID,0,VALID,96.249,VALID,0.0169808,VALID,19.4259,VALID,95,VALID,0.417869,
2001-06-26, 00:25:00,VALID,917.818,VALID,0,VALID,96.338,VALID,0.0849042,VALID,19.4324,VALID,91,VALID,0.392064,
2001-06-26, 00:26:00,VALID,917.806,VALID,0,VALID,96.3787,VALID,0.0169808,VALID,19.4356,VALID,83,VALID,0.361779,
2001-06-26, 00:27:00,VALID,917.775,VALID,0,VALID,96.4029,VALID,-0.0679233,VALID,19.4465,VALID,66,VALID,0.527755,
2001-06-26, 00:28:00,VALID,917.755,VALID,0,VALID,96.3584,VALID,-0.101885,VALID,19.4495,VALID,64,VALID,0.0544764,
2001-06-26, 00:29:00,VALID,917.731,VALID,0,VALID,96.3419,VALID,-0.101885,VALID,19.4465,VALID,64,VALID,0.00740132,
2001-06-26, 00:30:00,VALID,917.704,VALID,0.2,VALID,96.249,VALID,-0.0679233,VALID,19.4341,VALID,52,VALID,0.0679087,
2001-06-26, 00:31:00,VALID,917.678,VALID,0,VALID,96.305,VALID,-0.101885,VALID,19.4046,VALID,29,VALID,0.0392681,
2001-06-26, 00:32:00,VALID,917.633,VALID,0,VALID,96.4258,VALID,-0.101885,VALID,19.3951,VALID,29,VALID,0.020633,
2001-06-26, 00:33:00,VALID,917.562,VALID,0,VALID,96.5885,VALID,-0.0679233,VALID,19.4048,VALID,29,VALID,0.193873,
2001-06-26, 00:34:00,VALID,917.521,VALID,0,VALID,96.6686,VALID,-0.101885,VALID,19.408,VALID,29,VALID,0.167468,
2001-06-26, 00:35:00,VALID,917.466,VALID,0,VALID,96.689,VALID,-0.0679233,VALID,19.3981,VALID,29,VALID,0.026727,
2001-06-26, 00:36:00,VALID,917.406,VALID,0,VALID,96.7373,VALID,-0.0849042,VALID,19.3919,VALID,29,VALID,0,
2001-06-26, 00:37:00,VALID,917.366,VALID,0,VALID,96.7068,VALID,-0.0679233,VALID,19.3827,VALID,29,VALID,0,
2001-06-26, 00:38:00,VALID,917.303,VALID,0,VALID,96.469,VALID,-0.101885,VALID,19.3529,VALID,28,VALID,0.252204,
2001-06-26, 00:39:00,VALID,917.244,VALID,0,VALID,96.3419,VALID,-0.118866,VALID,19.3077,VALID,38,VALID,0.486842,
2001-06-26, 00:40:00,VALID,917.187,VALID,0,VALID,96.2376,VALID,-0.118866,VALID,19.2985,VALID,40,VALID,0.286058,
2001-06-26, 00:41:00,VALID,917.122,VALID,0,VALID,96.0837,VALID,-0.0849042,VALID,19.292,VALID,38,VALID,0.605674,
2001-06-26, 00:42:00,VALID,917.087,VALID,0,VALID,95.5649,VALID,0,VALID,19.255,VALID,34,VALID,0.827524,
2001-06-26, 00:43:00,VALID,917.057,VALID,0,VALID,94.9672,VALID,0,VALID,19.2389,VALID,21,VALID,0.916941,
2001-06-26, 00:44:00,VALID,917.023,VALID,0,VALID,94.2907,VALID,0.0169808,VALID,19.2356,VALID,33,VALID,0.839744,
2001-06-26, 00:45:00,VALID,916.99,VALID,0,VALID,93.8139,VALID,0,VALID,19.258,VALID,38,VALID,0.888775,
2001-06-26, 00:46:00,VALID,916.975,VALID,0,VALID,93.543,VALID,0,VALID,19.3131,VALID,39,VALID,0.890024,
2001-06-26, 00:47:00,VALID,916.97,VALID,0,VALID,93.3498,VALID,0.0169808,VALID,19.3295,VALID,39,VALID,0.896382,
2001-06-26, 00:48:00,VALID,916.954,VALID,0,VALID,93.2862,VALID,0,VALID,19.3362,VALID,52,VALID,1.01402,
2001-06-26, 00:49:00,VALID,916.943,VALID,0,VALID,93.1603,VALID,0,VALID,19.3362,VALID,49,VALID,0.930715,
2001-06-26, 00:50:00,VALID,916.917,VALID,0,VALID,93.2938,VALID,0,VALID,19.3325,VALID,31,VALID,0.873598,
2001-06-26, 00:51:00,VALID,916.9,VALID,0,VALID,93.0738,VALID,0.0169808,VALID,19.297,VALID,47,VALID,0.819079,
2001-06-26, 00:52:00,VALID,916.873,VALID,0,VALID,93.1069,VALID,0.0339617,VALID,19.297,VALID,43,VALID,0.755409,
2001-06-26, 00:53:00,VALID,916.864,VALID,0,VALID,92.9568,VALID,0.0339617,VALID,19.3032,VALID,51,VALID,0.952714,
2001-06-26, 00:54:00,VALID,916.835,VALID,0,VALID,92.5003,VALID,0.0339617,VALID,19.3,VALID,51,VALID,0.808894,
2001-06-26, 00:55:00,VALID,916.808,VALID,0,VALID,92.0451,VALID,0.0339617,VALID,19.3166,VALID,62,VALID,0.746505,
2001-06-26, 00:56:00,VALID,916.797,VALID,0,VALID,91.7119,VALID,0.0169808,VALID,19.3102,VALID,74,VALID,0.684295,
2001-06-26, 00:57:00,VALID,916.787,VALID,0,VALID,91.7946,VALID,0,VALID,19.3067,VALID,80,VALID,0.748972,
2001-06-26, 00:58:00,VALID,916.779,VALID,0,VALID,92.1951,VALID,0,VALID,19.3037,VALID,93,VALID,0.859776,
2001-06-26, 00:59:00,VALID,916.772,VALID,0,VALID,92.8055,VALID,0,VALID,19.2811,VALID,132,VALID,0.620888,
2001-06-26, 01:00:00,VALID,916.802,VALID,0,VALID,93.8203,VALID,0,VALID,19.2684,VALID,138,VALID,1.01783,
2001-06-26, 01:01:00,VALID,916.817,VALID,0,VALID,94.6112,VALID,0.0169808,VALID,19.2647,VALID,139,VALID,0.884457,
2001-06-26, 01:02:00,VALID,916.847,VALID,0,VALID,95.1949,VALID,0,VALID,19.2585,VALID,133,VALID,0.696514,
2001-06-26, 01:03:00,VALID,916.862,VALID,0,VALID,95.4835,VALID,0,VALID,19.2389,VALID,115,VALID,0.740132,
2001-06-26, 01:04:00,VALID,916.861,VALID,0,VALID,95.7734,VALID,0.0169808,VALID,19.2133,VALID,117,VALID,0.639824,
2001-06-26, 01:05:00,VALID,916.867,VALID,0,VALID,96.1524,VALID,0.0339617,VALID,19.177,VALID,168,VALID,0.318462,
2001-06-26, 01:06:00,VALID,916.857,VALID,0,VALID,96.4372,VALID,0.0339617,VALID,19.1778,VALID,45,VALID,0.270833,
2001-06-26, 01:07:00,VALID,916.846,VALID,0,VALID,96.7043,VALID,0,VALID,19.1743,VALID,121,VALID,0.828125,
2001-06-26, 01:08:00,VALID,916.834,VALID,0,VALID,96.9497,VALID,0.0169808,VALID,19.1743,VALID,133,VALID,0.58113,
2001-06-26, 01:09:00,VALID,916.83,VALID,0,VALID,97.1239,VALID,0.0169808,VALID,19.1484,VALID,156,VALID,0.840872,
2001-06-26, 01:10:00,VALID,916.835,VALID,0,VALID,97.2587,VALID,-0.0169808,VALID,19.1358,VALID,131,VALID,0.609175,
2001-06-26, 01:11:00,VALID,916.82,VALID,0,VALID,97.4583,VALID,0,VALID,19.1328,VALID,139,VALID,0.551604,
2001-06-26, 01:12:00,VALID,916.816,VALID,0,VALID,97.5893,VALID,-0.0339617,VALID,19.1206,VALID,139,VALID,0.710938,
2001-06-26, 01:13:00,VALID,916.802,VALID,0,VALID,97.6605,VALID,-0.0339617,VALID,19.1208,VALID,132,VALID,0.51727,
2001-06-26, 01:14:00,VALID,916.804,VALID,0,VALID,97.7139,VALID,-0.0679233,VALID,19.1111,VALID,141,VALID,0.532652,
2001-06-26, 01:15:00,VALID,916.783,VALID,0,VALID,97.7228,VALID,-0.0339617,VALID,19.1077,VALID,128,VALID,0.539063,
2001-06-26, 01:16:00,VALID,916.774,VALID,0,VALID,97.7495,VALID,-0.0339617,VALID,19.1049,VALID,130,VALID,0.715946,
2001-06-26, 01:17:00,VALID,916.792,VALID,0,VALID,97.7597,VALID,-0.0509425,VALID,19.0888,VALID,121,VALID,0.579359,
2001-06-26, 01:18:00,VALID,916.82,VALID,0,VALID,97.7571,VALID,-0.0339617,VALID,19.0689,VALID,128,VALID,0.825521,
2001-06-26, 01:19:00,VALID,916.83,VALID,0,VALID,97.78,VALID,-0.0509425,VALID,19.0721,VALID,120,VALID,0.968544,
2001-06-26, 01:20:00,VALID,916.841,VALID,0,VALID,97.7622,VALID,-0.0679233,VALID,19.0719,VALID,118,VALID,1.01042,
2001-06-26, 01:21:00,VALID,916.826,VALID,0,VALID,97.4977,VALID,-0.0339617,VALID,19.0592,VALID,102,VALID,1.2979,
2001-06-26, 01:22:00,VALID,916.805,VALID,0,VALID,97.4227,VALID,-0.0509425,VALID,19.0657,VALID,100,VALID,1.20292,
2001-06-26, 01:23:00,VALID,916.797,VALID,0,VALID,97.3375,VALID,-0.0339617,VALID,19.0687,VALID,86,VALID,1.38836,
2001-06-26, 01:24:00,VALID,916.786,VALID,0,VALID,97.2167,VALID,-0.0679233,VALID,19.0592,VALID,94,VALID,1.19151,
2001-06-26, 01:25:00,VALID,916.78,VALID,0,VALID,97.2485,VALID,-0.0679233,VALID,19.0401,VALID,110,VALID,0.923109,
2001-06-26, 01:26:00,VALID,916.771,VALID,0,VALID,97.3401,VALID,-0.0169808,VALID,19.0302,VALID,102,VALID,1.24119,
2001-06-26, 01:27:00,VALID,916.758,VALID,0,VALID,97.4342,VALID,-0.0509425,VALID,19.0043,VALID,111,VALID,0.940378,
2001-06-26, 01:28:00,VALID,916.745,VALID,0,VALID,97.4863,VALID,-0.0169808,VALID,18.9912,VALID,118,VALID,1.34916,
2001-06-26, 01:29:00,VALID,916.73,VALID,0,VALID,97.5168,VALID,-0.0509425,VALID,18.9688,VALID,141,VALID,0.598684,
2001-06-26, 01:30:00,VALID,916.708,VALID,0,VALID,97.5842,VALID,-0.0509425,VALID,18.9457,VALID,144,VALID,0.864383,
2001-06-26, 01:31:00,VALID,916.683,VALID,0,VALID,97.6147,VALID,-0.0509425,VALID,18.9397,VALID,145,VALID,1.04626,
2001-06-26, 01:32:00,VALID,916.663,VALID,0,VALID,97.6351,VALID,0,VALID,18.94,VALID,151,VALID,0.952123,
2001-06-26, 01:33:00,VALID,916.629,VALID,0,VALID,97.677,VALID,-0.0339617,VALID,18.9337,VALID,152,VALID,1.05798,
2001-06-26, 01:34:00,VALID,916.61,VALID,0,VALID,97.6414,VALID,-0.0509425,VALID,18.9437,VALID,149,VALID,0.987179,
2001-06-26, 01:35:00,VALID,916.598,VALID,0,VALID,97.6402,VALID,-0.0339617,VALID,18.9273,VALID,148,VALID,1.11431,
2001-06-26, 01:36:00,VALID,916.588,VALID,0,VALID,97.6325,VALID,-0.0509425,VALID,18.9144,VALID,149,VALID,1.09495,
2001-06-26, 01:37:00,VALID,916.567,VALID,0,VALID,97.6758,VALID,-0.0849042,VALID,18.9144,VALID,143,VALID,1.05921,
2001-06-26, 01:38:00,VALID,916.57,VALID,0,VALID,97.7559,VALID,-0.0679233,VALID,18.9015,VALID,143,VALID,0.748197,
2001-06-26, 01:39:00,VALID,916.589,VALID,0,VALID,97.8144,VALID,-0.0339617,VALID,18.8948,VALID,141,VALID,0.692845,
2001-06-26, 01:40:00,VALID,916.583,VALID,0,VALID,97.8004,VALID,-0.101885,VALID,18.8823,VALID,132,VALID,0.483974,
2001-06-26, 01:41:00,VALID,916.584,VALID,0,VALID,97.8067,VALID,-0.0679233,VALID,18.8818,VALID,118,VALID,0.670436,
2001-06-26, 01:42:00,VALID,916.572,VALID,0,VALID,97.7711,VALID,-0.0339617,VALID,18.8627,VALID,117,VALID,0.638622,
2001-06-26, 01:43:00,VALID,916.56,VALID,0,VALID,97.7559,VALID,-0.0679233,VALID,18.8622,VALID,105,VALID,0.702303,
2001-06-26, 01:44:00,VALID,916.546,VALID,0,VALID,97.6147,VALID,-0.0849042,VALID,18.8463,VALID,102,VALID,0.810497,
2001-06-26, 01:45:00,VALID,916.537,VALID,0,VALID,97.5372,VALID,-0.0509425,VALID,18.8304,VALID,124,VALID,0.78125,
2001-06-26, 01:46:00,VALID,916.548,VALID,0,VALID,97.5575,VALID,-0.0679233,VALID,18.8369,VALID,117,VALID,0.640625,
2001-06-26, 01:47:00,VALID,916.556,VALID,0.2,VALID,97.485,VALID,-0.0849042,VALID,18.8332,VALID,109,VALID,0.638569,
2001-06-26, 01:48:00,VALID,916.575,VALID,0,VALID,97.3553,VALID,-0.0849042,VALID,18.8237,VALID,97,VALID,0.532051,
2001-06-26, 01:49:00,VALID,916.587,VALID,0,VALID,97.2917,VALID,-0.0679233,VALID,18.8274,VALID,92,VALID,0.627262,
2001-06-26, 01:50:00,VALID,916.601,VALID,0,VALID,97.1824,VALID,-0.0509425,VALID,18.8274,VALID,136,VALID,0.642628,
2001-06-26, 01:51:00,VALID,916.603,VALID,0,VALID,97.2027,VALID,-0.0339617,VALID,18.8341,VALID,130,VALID,0.755345,
2001-06-26, 01:52:00,VALID,916.59,VALID,0,VALID,97.143,VALID,-0.0849042,VALID,18.8438,VALID,125,VALID,0.798878,
2001-06-26, 01:53:00,VALID,916.56,VALID,0,VALID,97.0946,VALID,-0.0339617,VALID,18.8306,VALID,130,VALID,0.83676,
2001-06-26, 01:54:00,VALID,916.549,VALID,0,VALID,96.9471,VALID,-0.0339617,VALID,18.8373,VALID,131,VALID,0.735978,
2001-06-26, 01:55:00,VALID,916.555,VALID,0,VALID,96.7984,VALID,-0.0849042,VALID,18.8239,VALID,127,VALID,0.754112,
2001-06-26, 01:56:00,VALID,916.559,VALID,0,VALID,96.1397,VALID,-0.0849042,VALID,18.8212,VALID,123,VALID,0.994992,
2001-06-26, 01:57:00,VALID,916.566,VALID,0,VALID,95.425,VALID,-0.101885,VALID,18.8016,VALID,124,VALID,0.844778,
2001-06-26, 01:58:00,VALID,916.563,VALID,0,VALID,95.0372,VALID,-0.0509425,VALID,18.8341,VALID,110,VALID,0.617989,
2001-06-26, 01:59:00,VALID,916.562,VALID,0,VALID,94.9533,VALID,-0.0679233,VALID,18.8826,VALID,121,VALID,0.462993,
2001-06-26, 02:00:00,VALID,916.566,VALID,0,VALID,94.9647,VALID,-0.0509425,VALID,18.9178,VALID,125,VALID,0.516226,
2001-06-26, 02:01:00,VALID,916.553,VALID,0,VALID,94.966,VALID,-0.101885,VALID,18.9271,VALID,136,VALID,0.546875,
2001-06-26, 02:02:00,VALID,916.57,VALID,0,VALID,94.9812,VALID,-0.0679233,VALID,18.9501,VALID,127,VALID,0.629607,
2001-06-26, 02:03:00,VALID,916.562,VALID,0,VALID,95.1135,VALID,-0.0849042,VALID,18.9501,VALID,121,VALID,0.769531,
2001-06-26, 02:04:00,VALID,916.574,VALID,0,VALID,94.882,VALID,-0.0849042,VALID,18.9181,VALID,109,VALID,1.00541,
2001-06-26, 02:05:00,VALID,916.571,VALID,0,VALID,95.0372,VALID,-0.0509425,VALID,18.8987,VALID,106,VALID,1.12397,
2001-06-26, 02:06:00,VALID,916.56,VALID,0,VALID,95.3169,VALID,-0.0849042,VALID,18.889,VALID,106,VALID,1.03666,
2001-06-26, 02:07:00,VALID,916.559,VALID,0,VALID,95.5166,VALID,-0.0679233,VALID,18.8729,VALID,113,VALID,1.02385,
2001-06-26, 02:08:00,VALID,916.563,VALID,0,VALID,95.6704,VALID,-0.0849042,VALID,18.8565,VALID,115,VALID,0.968149,
2001-06-26, 02:09:00,VALID,916.563,VALID,0,VALID,95.8014,VALID,-0.0339617,VALID,18.8341,VALID,110,VALID,1.09539,
2001-06-26, 02:10:00,VALID,916.583,VALID,0,VALID,95.8981,VALID,-0.0679233,VALID,18.8048,VALID,108,VALID,1.14944,
2001-06-26, 02:11:00,VALID,916.598,VALID,0,VALID,95.9489,VALID,-0.0509425,VALID,18.7956,VALID,120,VALID,1.02282,
2001-06-26, 02:12:00,VALID,916.619,VALID,0,VALID,95.9845,VALID,-0.0339617,VALID,18.7822,VALID,136,VALID,1.10216,
2001-06-26, 02:13:00,VALID,916.636,VALID,0,VALID,95.9718,VALID,-0.0509425,VALID,18.7725,VALID,120,VALID,1.00432,
2001-06-26, 02:14:00,VALID,916.652,VALID,0,VALID,96.0507,VALID,-0.0509425,VALID,18.7661,VALID,132,VALID,0.870593,
2001-06-26, 02:15:00,VALID,916.641,VALID,0,VALID,96.0087,VALID,-0.0509425,VALID,18.7663,VALID,135,VALID,1.27755,
2001-06-26, 02:16:00,VALID,916.644,VALID,0,VALID,95.9146,VALID,-0.0339617,VALID,18.7529,VALID,139,VALID,1.17588,
2001-06-26, 02:17:00,VALID,916.663,VALID,0,VALID,95.8192,VALID,-0.0509425,VALID,18.7402,VALID,136,VALID,0.854852,
2001-06-26, 02:18:00,VALID,916.673,VALID,0,VALID,95.893,VALID,-0.0849042,VALID,18.7536,VALID,136,VALID,0.929087,
2001-06-26, 02:19:00,VALID,916.69,VALID,0,VALID,95.9972,VALID,-0.0679233,VALID,18.7536,VALID,115,VALID,1.04194,
2001-06-26, 02:20:00,VALID,916.69,VALID,0,VALID,96.0557,VALID,-0.0509425,VALID,18.7402,VALID,120,VALID,0.947516,
2001-06-26, 02:21:00,VALID,916.711,VALID,0,VALID,96.1168,VALID,-0.0509425,VALID,18.7238,VALID,132,VALID,1.17188,
2001-06-26, 02:22:00,VALID,916.715,VALID,0,VALID,95.9146,VALID,-0.0339617,VALID,18.7112,VALID,128,VALID,1.33694,
2001-06-26, 02:23:00,VALID,916.722,VALID,0,VALID,95.8955,VALID,-0.0509425,VALID,18.7015,VALID,141,VALID,0.785979,
2001-06-26, 02:24:00,VALID,916.717,VALID,0,VALID,95.7582,VALID,-0.0679233,VALID,18.7086,VALID,127,VALID,0.898237,
2001-06-26, 02:25:00,VALID,916.706,VALID,0,VALID,95.6361,VALID,-0.0849042,VALID,18.7054,VALID,108,VALID,0.687911,
2001-06-26, 02:26:00,VALID,916.694,VALID,0,VALID,95.6743,VALID,-0.0509425,VALID,18.7079,VALID,103,VALID,0.504207,
2001-06-26, 02:27:00,VALID,916.689,VALID,0,VALID,95.6488,VALID,0.0339617,VALID,18.7095,VALID,110,VALID,0.83861,
2001-06-26, 02:28:00,VALID,916.679,VALID,0,VALID,95.706,VALID,0.0679233,VALID,18.7065,VALID,120,VALID,0.913662,
2001-06-26, 02:29:00,VALID,916.665,VALID,0,VALID,95.7251,VALID,0.0509425,VALID,18.6968,VALID,133,VALID,0.82648,
2001-06-26, 02:30:00,VALID,916.651,VALID,0,VALID,95.4021,VALID,0.0849042,VALID,18.6807,VALID,130,VALID,1.01863,
2001-06-26, 02:31:00,VALID,916.64,VALID,0,VALID,95.0652,VALID,0.0169808,VALID,18.6779,VALID,111,VALID,1.15892,
2001-06-26, 02:32:00,VALID,916.633,VALID,0,VALID,94.8782,VALID,0.0339617,VALID,18.6777,VALID,120,VALID,0.943109,
2001-06-26, 02:33:00,VALID,916.617,VALID,0,VALID,94.9049,VALID,0.0339617,VALID,18.6906,VALID,94,VALID,0.638363,
2001-06-26, 02:34:00,VALID,916.608,VALID,0,VALID,94.5959,VALID,0.0679233,VALID,18.6973,VALID,113,VALID,0.998397,
2001-06-26, 02:35:00,VALID,916.58,VALID,0,VALID,94.5425,VALID,0.0509425,VALID,18.6901,VALID,112,VALID,0.685855,
2001-06-26, 02:36:00,VALID,916.575,VALID,0,VALID,94.3938,VALID,0.0509425,VALID,18.6936,VALID,113,VALID,0.998598,
2001-06-26, 02:37:00,VALID,916.573,VALID,0,VALID,94.4026,VALID,0.0849042,VALID,18.6934,VALID,105,VALID,0.837171,
2001-06-26, 02:38:00,VALID,916.574,VALID,0,VALID,94.4624,VALID,0.0679233,VALID,18.7164,VALID,100,VALID,1.07031,
2001-06-26, 02:39:00,VALID,916.583,VALID,0,VALID,94.643,VALID,0.0849042,VALID,18.7229,VALID,80,VALID,0.797286,
2001-06-26, 02:40:00,VALID,916.596,VALID,0,VALID,94.6722,VALID,0.0339617,VALID,18.7291,VALID,99,VALID,0.656851,
2001-06-26, 02:41:00,VALID,916.595,VALID,0,VALID,94.7167,VALID,0.0509425,VALID,18.7264,VALID,115,VALID,0.840255,
2001-06-26, 02:42:00,VALID,916.598,VALID,0,VALID,94.7587,VALID,0.0509425,VALID,18.7001,VALID,99,VALID,0.600361,
2001-06-26, 02:43:00,VALID,916.595,VALID,0,VALID,94.6773,VALID,0.0339617,VALID,18.6968,VALID,94,VALID,0.703742,
2001-06-26, 02:44:00,VALID,916.599,VALID,0,VALID,94.7752,VALID,0.0169808,VALID,18.6871,VALID,104,VALID,0.768429,
2001-06-26, 02:45:00,VALID,916.59,VALID,0,VALID,94.877,VALID,0.0509425,VALID,18.6812,VALID,110,VALID,0.520559,
2001-06-26, 02:46:00,VALID,916.576,VALID,0,VALID,94.9978,VALID,0.0339617,VALID,18.6682,VALID,132,VALID,0.505409,
2001-06-26, 02:47:00,VALID,916.56,VALID,0,VALID,95.1186,VALID,0.0169808,VALID,18.6648,VALID,148,VALID,1.08779,
2001-06-26, 02:48:00,VALID,916.557,VALID,0,VALID,95.4148,VALID,0.0339617,VALID,18.6588,VALID,134,VALID,0.95613,
2001-06-26, 02:49:00,VALID,916.534,VALID,0,VALID,95.7582,VALID,0.0339617,VALID,18.6514,VALID,134,VALID,0.955181,
2001-06-26, 02:50:00,VALID,916.522,VALID,0,VALID,95.8955,VALID,0.0509425,VALID,18.6419,VALID,149,VALID,1.07572,
2001-06-26, 02:51:00,VALID,916.493,VALID,0,VALID,96.029,VALID,0.0509425,VALID,18.6263,VALID,142,VALID,1.11246,
2001-06-26, 02:52:00,VALID,916.486,VALID,0,VALID,96.2452,VALID,0.0339617,VALID,18.6131,VALID,140,VALID,1.35076,
2001-06-26, 02:53:00,VALID,916.477,VALID,0,VALID,96.2745,VALID,0,VALID,18.5875,VALID,140,VALID,0.972266,
2001-06-26, 02:54:00,VALID,916.476,VALID,0,VALID,96.3101,VALID,-0.0849042,VALID,18.5661,VALID,140,VALID,1.16246,
2001-06-26, 02:55:00,VALID,916.486,VALID,0,VALID,96.0532,VALID,-0.0509425,VALID,18.5534,VALID,138,VALID,1.07299,
2001-06-26, 02:56:00,VALID,916.485,VALID,0,VALID,96.1867,VALID,-0.0679233,VALID,18.5668,VALID,136,VALID,1.10397,
2001-06-26, 02:57:00,VALID,916.486,VALID,0,VALID,96.1448,VALID,-0.0509425,VALID,18.5663,VALID,140,VALID,1.29338,
2001-06-26, 02:58:00,VALID,916.489,VALID,0,VALID,96.1524,VALID,-0.0849042,VALID,18.5767,VALID,142,VALID,1.1264,
2001-06-26, 02:59:00,VALID,916.504,VALID,0,VALID,96.263,VALID,-0.0509425,VALID,18.5631,VALID,153,VALID,1.48335,
2001-06-26, 03:00:00,VALID,916.493,VALID,0,VALID,96.4143,VALID,-0.0679233,VALID,18.5663,VALID,147,VALID,1.39123,
2001-06-26, 03:01:00,VALID,916.498,VALID,0,VALID,96.4817,VALID,-0.0509425,VALID,18.5663,VALID,150,VALID,1.47492,
2001-06-26, 03:02:00,VALID,916.502,VALID,0,VALID,96.4092,VALID,-0.0339617,VALID,18.5402,VALID,141,VALID,1.32392,
2001-06-26, 03:03:00,VALID,916.486,VALID,0,VALID,96.1969,VALID,-0.0339617,VALID,18.5273,VALID,136,VALID,1.35711,
2001-06-26, 03:04:00,VALID,916.489,VALID,0,VALID,96.1091,VALID,-0.0169808,VALID,18.5075,VALID,138,VALID,1.02644,
2001-06-26, 03:05:00,VALID,916.471,VALID,0,VALID,96.0634,VALID,-0.0339617,VALID,18.5144,VALID,144,VALID,0.975946,
2001-06-26, 03:06:00,VALID,916.474,VALID,0,VALID,96.0481,VALID,0,VALID,18.5077,VALID,146,VALID,0.930889,
2001-06-26, 03:07:00,VALID,916.476,VALID,0,VALID,96.0494,VALID,-0.0169808,VALID,18.4946,VALID,159,VALID,0.994038,
2001-06-26, 03:08:00,VALID,916.48,VALID,0,VALID,96.0011,VALID,0,VALID,18.4916,VALID,143,VALID,1.36298,
2001-06-26, 03:09:00,VALID,916.49,VALID,0,VALID,96.0023,VALID,-0.0169808,VALID,18.4814,VALID,143,VALID,1.35876,
2001-06-26, 03:10:00,VALID,916.504,VALID,0,VALID,95.8968,VALID,0,VALID,18.4856,VALID,138,VALID,1.33994,
2001-06-26, 03:11:00,VALID,916.504,VALID,0,VALID,95.9324,VALID,-0.0509425,VALID,18.4823,VALID,141,VALID,1.04811,
2001-06-26, 03:12:00,VALID,916.508,VALID,0,VALID,95.926,VALID,-0.0169808,VALID,18.4757,VALID,140,VALID,1.0603,
2001-06-26, 03:13:00,VALID,916.509,VALID,0,VALID,95.8714,VALID,0,VALID,18.4759,VALID,138,VALID,0.822574,
2001-06-26, 03:14:00,VALID,916.503,VALID,0,VALID,95.7938,VALID,0,VALID,18.463,VALID,121,VALID,0.692308,
2001-06-26, 03:15:00,VALID,916.497,VALID,0,VALID,95.8421,VALID,-0.0339617,VALID,18.4593,VALID,81,VALID,0.646382,
2001-06-26, 03:16:00,VALID,916.501,VALID,0,VALID,95.7569,VALID,-0.0679233,VALID,18.4853,VALID,69,VALID,0.659255,
2001-06-26, 03:17:00,VALID,916.497,VALID,0,VALID,95.7887,VALID,-0.0169808,VALID,18.4883,VALID,68,VALID,0.696546,
2001-06-26, 03:18:00,VALID,916.492,VALID,0,VALID,95.6208,VALID,0,VALID,18.4849,VALID,85,VALID,0.789864,
2001-06-26, 03:19:00,VALID,916.509,VALID,0,VALID,95.5471,VALID,-0.0169808,VALID,18.4826,VALID,93,VALID,0.669819,
2001-06-26, 03:20:00,VALID,916.52,VALID,0,VALID,95.4505,VALID,-0.0679233,VALID,18.466,VALID,104,VALID,0.854367,
2001-06-26, 03:21:00,VALID,916.522,VALID,0,VALID,95.4288,VALID,-0.0339617,VALID,18.4623,VALID,112,VALID,0.837582,
2001-06-26, 03:22:00,VALID,916.513,VALID,0,VALID,95.4899,VALID,-0.0339617,VALID,18.4754,VALID,118,VALID,0.935697,
2001-06-26, 03:23:00,VALID,916.506,VALID,0,VALID,95.4695,VALID,-0.0509425,VALID,18.4856,VALID,128,VALID,0.844572,
2001-06-26, 03:24:00,VALID,916.514,VALID,0,VALID,95.3894,VALID,-0.0509425,VALID,18.4918,VALID,136,VALID,0.942708,
2001-06-26, 03:25:00,VALID,916.515,VALID,0,VALID,95.3297,VALID,-0.0339617,VALID,18.495,VALID,143,VALID,0.798109,
2001-06-26, 03:26:00,VALID,916.516,VALID,0,VALID,95.3309,VALID,-0.0339617,VALID,18.5077,VALID,149,VALID,0.745192,
2001-06-26, 03:27:00,VALID,916.52,VALID,0,VALID,95.0652,VALID,-0.0169808,VALID,18.501,VALID,147,VALID,0.921464,
2001-06-26, 03:28:00,VALID,916.522,VALID,0,VALID,94.7892,VALID,-0.0169808,VALID,18.5146,VALID,126,VALID,0.749599,
2001-06-26, 03:29:00,VALID,916.522,VALID,0,VALID,94.8719,VALID,-0.0509425,VALID,18.5139,VALID,106,VALID,0.442229,
2001-06-26, 03:30:00,VALID,916.526,VALID,0,VALID,95.0677,VALID,-0.0169808,VALID,18.5474,VALID,83,VALID,0.29988,
2001-06-26, 03:31:00,VALID,916.526,VALID,0,VALID,95.2801,VALID,-0.0169808,VALID,18.5628,VALID,75,VALID,0.129729,